Weather History for Abilene, TX

Change the Weather History Date:

Friday, December 21, 2012

  Actual Average Record
Temperature  
Mean Temperature 44 °F 44 °F  
Max Temperature 60 °F 56 °F 85 °F (2010)
Min Temperature 27 °F 33 °F 8 °F (1983)
Degree Days  
Heating Degree Days 21 21  
Month to date heating degree days 245 402  
Since 1 July heating degree days 587 835  
Cooling Degree Days 0 0  
Month to date cooling degree days 16 0  
Year to date cooling degree days 3049 2408  
Moisture  
Dew Point 5 °F    
Average Humidity 28    
Maximum Humidity 46    
Minimum Humidity 9    
Precipitation  
Precipitation 0.00 in 0.04 in 0.93 in (1907)
Month to date precipitation T 0.85  
Year to date precipitation 23.16 24.44  
Sea Level Pressure  
Sea Level Pressure 30.35 in    
Wind  
Wind Speed 9 mph (SSW)    
Max Wind Speed 17 mph    
Max Gust Speed 22 mph    
Visibility 10 miles    
Events      
T = Trace of Precipitation, MM = Missing Value Source: NWS Daily Summary

Daily Weather History Graph

Daily Weather History Graph

Search for Another Location

Airport:

Trip Planner

Search our weather history database for the weather conditions in past years. The results will help you decide how hot, cold, wet, or windy it might be!

Date:

Astronomy

Dec. 21, 2012 Rise Set
Actual Time 7:36 AM CST 5:37 PM CST
Civil Twilight 7:09 AM CST 6:05 PM CST
Nautical Twilight 6:38 AM CST 6:35 PM CST
Astronomical Twilight 6:08 AM CST 7:05 PM CST
Moon 1:13 PM CST (12/21) 1:38 AM CST (12/21)
Length of Visible Light 10h 55m
Length of Day
10h 01m
Waxing Gibbous, 65% of the Moon is Illuminated
Dec 21
Waxing Gibbous
Dec 28
Full
Jan 4
Last Quarter
Jan 11
New
Jan 18
First Quarter

Hourly Weather History & Observations

Time (CST) Temp. Windchill Dew Point Humidity Pressure Visibility Wind Dir Wind Speed Gust Speed Precip Events Conditions
12:52 AM 28.0 °F 20.0 °F 8.1 °F 43% 30.43 in 10.0 mi SSW 8.1 mph - N/A   Clear
1:52 AM 28.9 °F 21.9 °F 8.1 °F 41% 30.41 in 10.0 mi SSW 6.9 mph - N/A   Clear
2:52 AM 30.0 °F 23.2 °F 9.0 °F 41% 30.42 in 10.0 mi SSW 6.9 mph - N/A   Clear
3:52 AM 32.0 °F 25.6 °F 8.1 °F 37% 30.43 in 10.0 mi SSW 6.9 mph - N/A   Clear
4:52 AM 32.0 °F 28.7 °F 7.0 °F 35% 30.42 in 10.0 mi South 3.5 mph - N/A   Clear
5:52 AM 32.0 °F 28.7 °F 7.0 °F 35% 30.41 in 10.0 mi South 3.5 mph - N/A   Clear
6:52 AM 30.0 °F 22.4 °F 8.1 °F 40% 30.43 in 10.0 mi SSW 8.1 mph - N/A   Clear
7:52 AM 27.0 °F 20.5 °F 8.1 °F 45% 30.46 in 10.0 mi SSW 5.8 mph - N/A   Clear
8:52 AM 34.0 °F 28.8 °F 9.0 °F 35% 30.46 in 10.0 mi SSW 5.8 mph - N/A   Clear
9:52 AM 46.0 °F 42.5 °F 8.1 °F 21% 30.46 in 10.0 mi SSW 6.9 mph - N/A   Clear
10:52 AM 52.0 °F - 7.0 °F 16% 30.44 in 10.0 mi SSW 6.9 mph - N/A   Clear
11:52 AM 55.9 °F - 1.9 °F 11% 30.40 in 10.0 mi SSW 15.0 mph - N/A   Clear
12:52 PM 55.9 °F - 1.9 °F 11% 30.37 in 10.0 mi SSW 12.7 mph - N/A   Clear
1:52 PM 59.0 °F - -0.0 °F 9% 30.32 in 10.0 mi SSW 11.5 mph - N/A   Clear
2:52 PM 60.1 °F - 1.0 °F 9% 30.30 in 10.0 mi SW 11.5 mph 20.7 mph N/A   Clear
3:52 PM 60.1 °F - 1.9 °F 10% 30.28 in 10.0 mi South 11.5 mph - N/A   Clear
4:52 PM 59.0 °F - 3.0 °F 11% 30.28 in 10.0 mi SSW 12.7 mph - N/A   Clear
5:52 PM 52.0 °F - 5.0 °F 15% 30.27 in 10.0 mi SSE 5.8 mph - N/A   Clear
6:52 PM 48.0 °F - 7.0 °F 19% 30.28 in 10.0 mi South 8.1 mph - N/A   Clear
7:52 PM 43.0 °F 38.8 °F 7.0 °F 23% 30.30 in 10.0 mi South 6.9 mph - N/A   Clear
8:52 PM 43.0 °F 38.2 °F 6.1 °F 22% 30.28 in 10.0 mi South 8.1 mph - N/A   Clear
9:52 PM 46.0 °F 41.9 °F 3.0 °F 17% 30.27 in 10.0 mi South 8.1 mph - N/A   Clear
10:52 PM 48.0 °F - 3.0 °F 16% 30.25 in 10.0 mi SSW 13.8 mph - N/A   Clear
11:52 PM 48.0 °F - 3.9 °F 16% 30.23 in 10.0 mi SSW 13.8 mph - N/A   Clear